Wind_Speed
3 3 4 4 4 6 6 5 4 4 5 6 5 3 3 3 3 3 3 2 1 3 2 1 4 6 2 1 6 3 6 2 3 0 1 4 8 12 13 16 18 18 20 19 21 23 23 24 22 22 22 21 21 20 20 20 19 19 19 18 18 17 17 18 20 19 19 18 18 18 17 17 16 15 15 13 12 11 11 10 9 9 10 10 11 12 12 11 10 10 10 10 9 9 10 10 11
3 4 4 4 5 6 3 3 5 3 6 6 5 2 4 4 3 4 0 1 3 4 2 3 6 5 2 2 3 4 4 9 10 6 6 9 12 12 15 17 17 18 19 19 21 22 23 24 22 22 22 22 21 21 21 20 20 20 19 19 19 18 17 18 19 18 18 18 18 18 17 16 15 15 14 13 12 11 11 10 9 8 8 9 10 11 12 11 11 10 10 10 10 10 10 10 10
4 4 4 5 6 6 2 3 6 5 6 6 3 4 2 2 3 1 3 2 4 5 4 5 6 5 2 4 5 4 4 7 10 9 7 10 11 13 17 17 16 18 19 19 19 20 22 23 23 22 22 22 21 21 21 21 20 20 19 19 19 19 18 17 17 18 18 18 17 17 16 16 15 14 13 12 11 11 10 10 9 8 8 8 9 10 11 11 11 11 11 11 10 10 10 10 10
4 5 6 6 5 5 4 5 5 6 5 6 2 5 2 1 2 3 3 4 5 4 5 6 6 2 3 3 5 2 5 6 7 8 7 9 11 15 17 16 16 16 17 18 17 18 21 23 23 22 22 22 21 21 21 21 20 20 19 19 19 18 18 18 18 18 18 17 16 16 16 15 14 14 13 12 11 10 9 9 9 8 8 8 8 9 9 10 11 11 11 11 11 10 10 10 9
4 5 6 7 4 2 4 4 4 7 5 4 2 5 4 3 4 4 6 5 4 3 4 4 4 3 2 5 3 1 6 6 6 8 9 11 14 17 16 16 15 14 16 18 17 16 20 24 23 22 21 21 21 21 21 22 21 20 19 19 18 18 18 18 19 18 17 16 16 16 15 15 14 13 12 11 11 10 9 9 9 8 8 9 9 9 9 10 11 11 11 11 11 10 10 9 8
5 6 6 7 3 2 4 5 4 6 2 3 3 4 5 5 6 7 6 4 4 2 3 4 2 5 3 6 5 4 5 4 7 9 11 14 16 16 16 16 14 14 14 15 16 17 21 23 22 22 21 21 21 21 21 21 21 20 19 19 18 18 18 18 18 17 16 15 15 15 14 14 13 12 11 11 10 10 9 9 9 8 8 9 10 10 10 10 10 10 11 11 11 11 10 9 8
6 6 6 6 3 2 6 6 5 4 2 1 4 4 5 6 6 4 5 5 5 4 3 2 2 4 4 4 4 7 3 3 7 9 14 16 16 16 16 15 14 14 14 13 14 17 21 21 22 23 21 21 21 20 21 21 21 20 20 19 18 18 18 17 17 16 15 14 13 13 12 12 11 11 11 11 10 10 9 9 9 8 8 9 10 11 10 10 10 10 11 10 10 11 10 10 9
7 5 3 5 4 4 6 6 4 3 2 1 2 3 5 4 2 0 4 4 4 5 4 3 5 3 4 3 2 6 4 6 10 13 17 17 16 16 16 15 15 14 14 13 13 16 19 19 20 21 21 22 22 21 20 20 21 20 20 19 18 18 18 17 16 15 14 13 13 12 11 11 10 11 11 11 10 10 9 8 10 9 8 8 9 10 10 10 10 11 11 10 10 10 10 9 9
8 5 2 5 5 4 6 5 3 2 1 2 3 2 2 2 3 3 3 3 3 4 5 5 4 3 5 4 4 6 7 10 13 16 17 16 16 16 15 14 15 15 14 14 14 15 16 18 18 20 21 20 21 21 20 20 20 20 19 18 19 19 19 18 16 15 14 13 12 12 11 10 10 11 12 11 9 10 9 8 9 9 8 8 8 9 10 10 11 11 11 9 10 11 10 9 9
6 4 3 4 5 5 7 5 3 2 3 4 4 3 3 3 5 5 6 4 5 4 5 4 2 3 7 7 6 6 9 14 15 15 16 16 16 15 15 14 15 15 15 14 14 15 14 16 18 19 20 19 20 20 20 20 19 20 19 18 18 18 18 17 16 15 14 13 12 12 11 10 10 10 12 11 9 9 9 8 9 10 8 8 8 8 10 11 11 11 10 10 10 10 10 10 9
5 4 3 4 6 6 6 4 3 2 2 4 4 3 3 3 6 7 8 5 5 5 5 4 3 7 8 7 6 6 12 16 15 16 16 16 16 16 15 15 15 14 14 15 15 15 14 15 17 18 18 18 19 19 20 20 19 19 19 19 18 18 17 16 16 15 14 13 13 12 11 10 10 9 10 10 9 9 9 8 9 9 8 7 7 7 9 10 9 9 10 11 10 9 9 10 8
5 4 4 5 6 5 3 2 2 2 3 5 4 3 1 2 5 7 9 7 7 7 7 6 4 7 7 7 5 9 14 14 15 16 16 16 16 16 15 14 14 14 14 15 15 15 14 14 15 16 16 17 17 18 19 19 19 18 19 18 18 17 16 15 14 14 13 12 13 13 12 10 10 10 10 11 10 9 9 9 8 8 8 7 6 6 7 7 8 8 10 11 10 9 9 8 6
5 4 5 5 4 3 2 3 2 2 4 4 3 5 3 3 5 8 9 8 9 9 8 6 5 7 5 7 7 10 13 13 15 15 16 16 15 15 15 14 14 14 14 14 15 14 14 14 14 15 16 16 16 16 17 18 18 18 19 18 18 17 15 14 13 13 12 11 12 13 12 10 10 10 10 11 11 10 9 9 9 7 6 6 6 5 5 6 8 8 10 11 10 9 8 7 6
4 3 5 4 2 4 3 4 2 4 3 5 5 4 3 5 6 8 8 9 10 6 4 8 7 8 5 7 7 8 12 16 16 16 16 15 15 15 14 14 15 15 14 14 14 13 13 13 14 14 14 14 14 15 15 16 18 18 18 18 18 18 16 15 14 13 12 12 12 12 12 11 10 9 9 10 10 10 9 8 9 8 6 5 5 5 4 6 8 9 10 10 9 8 7 5 5
4 2 5 5 3 5 4 3 2 4 3 7 4 4 5 4 4 7 8 11 7 4 4 6 6 5 5 7 7 8 15 19 18 17 17 15 15 15 14 14 14 15 14 14 13 12 13 13 13 13 13 12 12 13 13 15 16 17 16 17 18 17 17 16 15 13 13 12 12 12 11 12 11 9 9 8 8 9 9 8 8 8 7 6 4 4 3 4 7 8 10 10 9 9 7 6 5
4 3 4 5 4 4 4 3 3 3 2 5 2 5 8 3 2 6 6 8 3 7 6 6 5 1 2 5 8 15 19 20 19 19 18 16 16 15 14 13 13 14 13 13 12 12 12 12 13 12 12 11 11 11 12 13 15 16 15 15 17 17 16 17 16 14 14 12 11 12 11 11 11 10 8 8 8 8 8 7 7 7 6 6 6 4 3 3 7 8 9 10 10 10 9 9 8
3 4 5 5 5 4 3 4 3 1 2 2 3 6 10 5 3 4 2 8 6 10 8 6 6 2 1 5 14 21 22 21 20 19 18 17 16 15 14 13 12 12 11 11 11 11 12 12 12 11 11 10 11 12 11 12 14 15 15 15 16 17 16 16 15 14 14 13 11 10 10 10 10 11 9 7 7 6 6 6 8 7 5 5 5 5 4 3 7 8 9 11 11 11 10 10 8
5 5 6 5 5 3 1 2 1 3 2 3 7 7 10 7 1 2 4 10 9 11 9 6 7 5 6 12 19 23 23 22 21 20 18 16 15 15 14 13 12 12 11 10 9 10 11 11 11 11 11 10 11 11 12 13 14 14 15 15 16 16 17 16 14 13 12 12 11 9 8 8 8 8 9 7 6 6 6 5 7 6 5 5 3 4 5 5 6 8 10 10 10 10 10 9 8
6 4 5 6 4 1 2 2 2 3 5 7 8 7 9 7 1 2 7 12 12 12 11 10 10 9 11 16 20 22 22 22 21 19 18 16 15 15 14 13 13 12 11 10 10 9 10 10 10 11 11 11 10 9 10 12 12 12 13 13 14 13 15 15 13 12 12 11 11 10 8 6 7 6 7 7 5 6 6 5 7 7 6 6 4 3 5 7 5 7 11 11 9 8 8 8 8
6 4 6 5 2 1 1 3 4 5 7 9 8 9 9 4 1 3 6 11 13 12 12 13 13 13 14 16 18 21 21 21 20 18 17 16 15 14 14 13 13 12 11 11 11 10 10 10 10 10 11 11 10 9 9 10 9 9 10 10 11 11 11 13 13 12 12 11 10 10 8 6 6 5 5 5 4 5 5 5 7 8 8 7 6 5 6 8 7 7 10 11 9 8 8 8 8
4 5 7 2 1 3 3 3 4 5 7 9 9 10 7 1 2 5 5 9 11 11 11 12 14 15 16 17 18 20 20 20 19 18 16 15 14 14 13 12 12 12 11 11 11 10 11 10 9 9 10 10 9 9 9 9 9 8 8 8 9 9 9 10 12 12 12 11 9 9 8 7 6 5 4 5 5 5 4 4 5 7 9 9 7 7 7 8 8 8 9 11 11 9 8 8 7
3 7 8 4 2 4 3 2 4 6 7 8 9 9 6 2 5 5 7 8 5 5 7 6 11 15 16 18 18 18 19 18 18 17 16 15 14 13 12 12 12 12 11 11 11 11 10 9 9 8 8 8 8 8 8 8 9 8 8 8 8 8 9 10 11 11 11 10 9 7 7 7 6 5 5 5 5 4 3 4 6 6 7 8 7 7 7 7 8 9 9 11 12 10 9 8 7
5 7 6 5 6 5 4 4 4 5 8 8 8 7 6 6 5 4 7 3 4 3 5 4 9 13 15 17 16 17 18 17 17 17 16 15 14 14 13 12 12 11 10 10 11 10 9 9 8 8 7 7 7 7 7 8 8 8 7 8 8 8 9 9 10 10 9 9 8 7 7 7 6 6 6 6 4 3 3 4 6 7 7 7 7 7 6 6 7 7 8 10 11 11 10 9 8
8 6 4 5 5 5 6 6 5 6 9 9 8 7 7 6 2 3 6 3 6 3 6 7 9 12 14 15 15 16 17 16 17 17 16 15 14 14 13 12 11 11 11 10 10 9 9 9 8 8 7 7 7 6 7 7 7 7 8 8 8 9 10 9 9 9 9 8 8 7 6 6 6 6 7 6 4 4 3 3 5 7 8 8 7 7 6 6 6 6 7 9 9 10 9 9 9
9 7 3 4 4 6 7 5 6 7 8 8 7 7 5 3 0 3 5 5 4 3 7 10 11 12 13 14 15 15 15 16 16 17 16 14 14 14 13 12 11 11 11 11 10 10 10 9 8 8 7 7 6 5 5 5 6 6 7 8 7 9 10 9 9 8 8 9 9 9 9 8 7 7 7 6 4 4 4 4 5 7 8 8 7 6 6 6 6 6 7 8 9 8 8 9 10
7 7 4 5 6 5 5 5 7 6 5 5 5 4 0 1 3 3 5 5 4 4 7 11 12 13 13 13 14 14 14 15 16 16 14 13 14 15 14 13 13 12 12 12 11 10 10 10 9 8 7 6 5 4 3 2 3 4 6 7 7 8 8 9 9 8 7 7 8 9 10 10 9 8 7 6 5 5 5 5 7 9 9 9 8 6 6 6 6 7 8 9 9 8 9 9 9
3 5 5 7 7 4 4 5 6 4 3 4 4 2 4 4 5 3 5 4 3 5 7 11 12 13 13 13 14 14 14 15 16 16 14 14 15 15 14 13 14 14 13 13 12 10 10 10 9 8 7 6 5 4 3 2 2 3 4 5 6 7 7 8 8 7 5 4 5 7 8 9 9 9 8 6 6 7 6 6 8 10 11 11 10 8 5 5 4 5 7 9 9 10 10 9 9
1 5 6 7 6 3 4 5 4 4 3 2 4 3 5 5 3 4 6 3 3 6 8 11 11 12 13 14 14 13 13 15 17 16 16 16 15 15 15 15 14 14 14 14 12 11 11 10 8 8 7 6 5 4 3 3 3 3 3 4 5 6 7 7 7 6 4 4 4 5 5 6 8 8 7 6 7 8 7 7 8 10 12 13 12 9 6 5 4 4 6 8 9 10 9 9 8
4 5 6 6 6 5 4 4 4 4 3 1 4 4 7 5 4 7 5 3 4 6 8 10 11 11 13 14 13 12 12 15 16 16 16 15 14 16 16 16 16 14 14 14 12 11 12 9 7 7 6 5 5 3 2 3 3 3 3 3 4 5 6 6 6 6 5 5 5 4 4 6 7 7 6 5 6 7 6 6 6 10 14 16 13 10 7 6 6 6 7 9 9 9 8 8 8
5 5 6 4 7 6 5 4 6 5 2 1 6 6 7 7 6 6 4 3 5 7 8 9 10 10 11 12 11 12 13 14 15 15 16 15 14 16 17 16 16 14 13 13 12 12 11 10 8 7 6 5 4 2 1 1 2 3 3 3 3 4 5 4 4 5 5 5 4 4 4 5 5 5 4 3 3 4 5 4 5 8 13 15 12 10 9 8 9 7 8 9 8 8 7 6 6
4 4 4 4 5 6 8 4 5 6 3 2 7 6 4 8 6 4 3 3 5 6 7 8 9 9 10 10 10 11 12 13 15 16 16 16 14 15 17 17 15 14 13 13 13 12 11 11 9 8 7 5 3 2 1 1 1 2 3 3 2 2 3 3 2 3 4 5 4 3 3 3 3 2 1 0 1 3 4 4 5 7 10 14 12 10 9 9 9 7 7 8 6 6 6 6 6
4 4 4 5 4 6 10 5 2 4 5 2 7 6 3 7 6 4 2 3 4 5 6 8 9 10 9 9 10 11 11 13 16 16 15 15 15 14 16 16 15 13 12 12 12 12 11 11 10 9 7 6 4 3 2 1 2 2 2 3 2 1 2 3 3 3 3 3 3 3 1 1 1 2 2 2 1 2 3 3 5 5 9 14 14 11 9 8 7 5 6 5 5 5 4 5 5
5 5 3 4 5 5 8 6 5 4 4 4 5 7 3 5 5 5 3 3 4 5 6 7 8 9 9 9 9 9 10 12 14 15 16 15 14 14 15 15 15 12 10 11 12 12 12 12 11 10 8 7 5 5 4 3 3 3 3 3 2 1 1 2 1 2 2 2 2 2 1 1 2 3 3 2 2 0 2 3 4 4 9 14 13 11 10 9 8 6 4 3 2 3 3 3 2
5 4 2 3 4 3 6 8 5 2 3 4 3 7 3 4 3 4 3 3 5 6 6 7 7 8 8 8 9 10 10 11 12 14 16 15 13 14 13 12 12 11 10 11 11 11 11 11 11 10 9 8 7 6 5 4 4 3 3 3 3 2 1 1 0 1 2 2 2 3 2 3 3 3 3 3 2 1 0 2 3 3 8 14 13 11 10 10 10 8 5 3 2 4 5 5 4
3 4 3 4 3 3 3 6 4 1 4 4 4 7 3 2 3 4 4 4 5 6 6 5 6 7 7 8 10 11 11 11 10 13 16 15 13 13 12 10 11 10 10 11 11 11 11 11 11 11 10 9 8 7 6 5 4 3 3 3 3 3 2 1 0 1 1 1 2 2 2 2 2 3 3 2 2 2 1 1 2 2 4 9 11 11 11 10 9 7 6 7 7 8 9 8 7
1 2 3 3 5 4 2 5 5 3 3 5 3 4 3 0 2 5 5 4 6 7 6 5 5 6 7 8 9 10 11 10 10 12 15 16 14 13 12 11 11 11 11 12 11 12 12 11 11 11 10 10 9 8 6 5 5 4 4 4 4 3 3 2 1 1 1 1 2 3 3 3 3 3 3 2 1 1 1 1 2 1 2 5 6 8 11 11 9 7 7 9 9 10 11 10 8
2 3 4 4 4 4 4 5 5 3 4 4 2 3 3 1 1 4 4 4 6 8 7 7 6 7 7 8 10 11 11 9 10 12 13 15 15 13 12 11 11 11 12 13 13 13 13 13 12 12 11 10 9 8 6 5 5 5 4 4 4 4 3 3 2 1 2 3 4 4 4 4 3 3 3 2 1 1 1 2 3 3 3 4 4 4 7 9 10 9 8 10 10 10 12 11 9
4 5 6 5 6 4 5 5 4 2 5 3 3 5 6 3 1 3 4 5 7 8 8 8 8 8 7 8 10 10 10 8 9 11 12 14 15 15 13 11 12 13 13 14 15 14 14 14 13 12 12 11 10 9 7 6 4 4 4 4 4 4 4 3 3 4 4 5 6 5 5 4 3 3 3 3 2 2 1 1 3 4 5 6 6 5 4 6 8 8 7 8 10 11 11 10 9
5 5 6 6 5 4 5 6 4 2 4 3 2 6 7 4 3 3 5 6 5 5 6 7 7 8 9 9 9 9 10 10 10 10 12 14 15 16 14 13 13 14 14 15 15 15 15 15 13 13 13 12 11 9 8 7 6 4 4 5 4 5 5 4 5 5 5 5 6 6 6 6 5 4 4 4 3 3 2 2 3 3 4 5 6 6 4 4 5 6 6 7 8 10 10 9 9
6 5 6 5 3 4 4 6 6 3 3 5 2 5 7 5 6 5 6 5 3 3 4 4 5 7 8 8 8 9 10 11 11 11 11 13 15 17 17 15 15 14 15 16 16 16 16 15 14 14 14 13 11 11 9 8 8 7 6 6 6 6 6 6 6 6 5 5 6 7 7 7 6 6 5 5 4 4 3 3 4 5 5 4 5 5 4 2 2 3 3 5 7 8 8 7 7
5 5 7 4 3 5 5 3 5 4 2 3 5 7 8 7 8 7 7 6 5 5 6 5 5 5 6 7 8 9 9 10 11 11 12 13 15 18 19 18 17 16 16 17 19 18 17 16 16 15 15 13 12 11 10 9 10 9 8 8 8 7 7 6 6 5 5 4 5 6 7 7 7 7 6 6 6 5 5 5 5 5 6 5 5 5 5 3 1 1 0 2 4 4 4 3 3
5 7 9 7 4 5 5 2 3 6 5 2 4 7 4 5 7 7 7 7 8 7 7 6 5 5 6 7 8 9 9 9 10 11 12 14 16 18 19 20 19 19 18 18 20 19 19 17 16 16 15 14 13 12 11 11 11 11 11 10 9 8 7 6 5 5 5 4 5 6 6 7 7 7 8 8 8 7 7 6 6 6 6 6 6 5 5 4 4 3 3 2 2 2 1 2 2
4 7 9 9 7 6 6 5 5 6 3 3 2 7 3 3 6 5 6 6 7 8 8 6 5 6 6 6 7 7 8 9 9 10 11 13 15 17 18 20 21 21 19 19 19 19 19 17 17 17 16 14 14 13 13 12 12 12 12 11 9 8 7 7 6 6 6 5 6 6 7 7 7 8 8 8 8 8 8 8 7 7 7 7 7 6 6 5 5 5 5 5 4 5 4 1 2
1 4 7 9 8 7 7 6 6 5 3 2 5 6 5 5 5 5 5 6 7 8 8 7 5 5 5 5 6 6 7 7 8 9 11 13 15 17 19 21 22 21 20 20 19 20 20 18 19 19 17 16 16 15 15 13 12 12 12 11 10 8 7 8 8 7 7 6 6 6 6 7 7 7 8 8 9 9 9 9 8 8 8 7 7 7 7 6 7 7 7 6 5 5 6 4 3
1 2 4 6 7 6 6 6 6 3 3 5 7 5 6 7 4 6 5 8 9 7 5 4 4 4 4 3 4 5 6 7 8 9 10 11 14 18 19 19 21 21 21 21 20 21 20 19 21 20 18 18 18 18 17 15 13 13 12 12 11 9 7 7 8 7 7 7 7 6 6 6 7 7 8 9 9 10 10 10 10 9 9 8 8 8 8 8 7 7 7 8 8 7 7 5 4
2 3 4 5 5 5 5 6 7 4 5 9 5 5 5 6 5 6 5 6 5 4 3 2 2 2 1 1 2 4 5 6 8 10 11 11 14 17 17 18 19 20 20 20 20 20 21 21 22 21 19 19 19 20 19 16 15 13 12 12 12 11 9 7 7 8 8 7 7 7 6 6 6 7 8 9 10 10 10 10 10 10 10 9 9 9 9 8 8 8 8 8 8 8 8 8 7
4 6 6 6 6 5 5 6 5 6 7 7 4 5 4 6 6 5 2 1 2 1 1 1 4 5 6 6 5 5 5 5 6 8 10 12 14 14 15 17 19 19 20 20 20 21 22 22 22 20 20 19 19 21 21 18 16 15 13 13 13 12 11 9 8 8 8 8 7 7 7 6 7 7 8 9 9 9 9 9 10 10 10 10 9 9 8 8 8 8 8 8 8 8 7 8 7
5 6 6 6 6 5 5 6 4 7 7 2 4 5 5 7 5 1 3 4 4 2 2 4 6 7 7 7 7 7 6 6 6 7 8 10 12 13 14 16 18 19 20 20 20 21 22 22 21 20 21 21 20 22 22 20 18 16 15 14 14 14 12 11 9 9 9 9 8 8 7 7 7 7 7 8 8 8 8 8 9 9 9 9 9 8 8 8 8 7 7 7 7 7 7 6 6
7 7 7 6 6 5 6 6 6 7 4 4 5 4 5 8 4 5 6 5 5 3 3 4 6 6 7 7 7 6 6 6 6 5 5 7 9 12 14 16 17 18 20 21 20 21 21 21 23 23 23 23 22 22 23 21 19 18 16 15 15 14 13 12 10 9 9 9 8 8 8 7 7 8 7 8 8 7 7 7 8 8 9 9 9 8 8 8 8 8 8 8 7 7 7 6 6
8 8 7 7 6 6 7 7 6 7 3 5 5 4 5 8 2 7 7 5 5 4 3 3 4 5 6 6 6 6 7 7 7 6 4 3 7 10 13 15 15 16 19 20 20 21 20 22 25 24 23 24 23 22 22 21 20 19 18 16 15 15 14 13 11 10 9 9 8 9 8 7 7 8 8 8 9 8 6 7 7 8 8 9 9 8 8 7 7 7 7 7 7 7 7 7 7
8 7 6 8 7 6 8 6 7 7 3 4 5 4 6 6 2 7 7 7 5 4 4 3 2 3 3 4 6 7 8 8 7 7 5 2 3 6 10 12 12 13 16 18 19 19 19 22 25 23 21 22 23 22 21 21 20 19 18 17 15 15 15 14 13 11 10 9 9 9 8 7 6 7 7 8 9 9 7 7 8 8 8 8 8 8 7 7 6 6 6 6 6 6 6 5 5
6 5 7 7 6 6 6 3 3 5 5 3 5 5 5 1 5 6 7 7 6 5 4 3 2 3 4 5 7 8 8 8 8 7 7 5 3 4 6 8 8 9 12 15 16 17 19 22 21 20 20 20 21 21 20 21 21 17 16 16 15 14 14 14 14 12 11 11 10 10 10 9 7 7 8 9 10 10 10 9 8 8 8 8 7 7 6 6 6 5 5 5 5 5 5 4 4
3 5 8 4 3 7 7 3 1 1 7 7 5 7 5 3 5 8 9 8 8 7 5 4 4 4 5 7 7 8 8 9 9 8 8 7 6 7 6 5 6 7 9 11 12 13 18 20 17 17 18 16 17 19 18 19 19 16 15 17 17 16 16 15 14 14 14 13 12 11 11 11 10 9 10 11 12 11 11 11 10 9 9 8 8 7 6 6 6 6 5 5 5 4 4 4 3
4 5 5 1 2 6 6 5 4 5 9 8 7 10 8 6 5 8 10 10 10 8 7 7 6 5 6 7 7 8 9 9 9 9 8 7 8 10 8 6 4 4 6 8 10 11 13 14 11 12 14 13 12 13 14 15 18 20 22 22 23 23 21 19 16 15 16 16 15 13 12 13 13 12 12 13 13 13 13 12 11 11 10 9 8 8 7 7 6 6 6 5 5 4 4 3 3
8 5 2 3 6 7 6 6 7 8 9 7 9 12 10 9 6 9 12 12 11 10 8 8 7 7 7 7 8 9 9 9 9 10 8 8 10 11 10 8 6 5 4 4 6 9 12 12 11 10 9 10 8 8 10 12 15 21 23 22 25 26 22 19 16 15 16 17 18 16 14 14 15 15 15 15 15 15 14 14 13 12 11 10 9 8 7 7 7 6 6 6 5 5 4 3 3
7 5 5 5 5 6 6 6 6 8 9 8 10 10 8 8 6 9 13 12 13 11 9 8 8 9 7 7 7 8 9 9 9 9 9 10 10 11 10 9 8 6 5 5 3 3 6 8 10 9 7 7 7 6 7 8 12 16 16 17 21 22 20 19 17 15 16 17 19 18 17 16 15 16 17 17 16 16 16 16 15 14 13 12 10 9 8 7 6 6 6 6 6 6 5 4 3
6 7 8 7 5 5 6 7 8 8 8 8 9 10 8 5 4 7 10 11 12 11 10 9 9 10 9 8 7 7 8 8 8 9 9 10 11 12 11 10 9 8 6 6 5 2 0 2 4 5 5 6 7 8 9 8 10 13 14 15 18 18 18 18 18 17 18 18 18 18 19 18 16 17 18 18 18 17 18 17 16 16 15 14 12 11 9 8 7 7 7 6 6 6 6 5 4
5 6 8 8 7 7 7 9 9 7 8 9 9 11 7 2 1 5 8 9 10 11 11 10 9 10 9 8 8 7 7 7 8 8 8 9 11 13 13 12 11 11 9 8 7 5 3 2 2 3 4 6 8 9 9 10 10 12 14 16 18 18 18 18 18 19 19 19 18 17 18 18 18 18 19 20 19 19 19 18 18 17 16 15 14 12 11 10 9 9 8 7 7 6 6 5 4
Wind_Direction
213 233 239 257 259 251 232 229 239 191 235 257 245 254 134 114 359 273 219 207 264 116 163 7 163 163 143 226 171 107 28 40 34 326 110 88 132 136 142 141 143 146 139 140 146 147 149 154 155 156 157 157 153 150 149 146 144 141 142 142 144 145 144 144 147 152 152 153 149 145 142 139 135 132 134 135 134 134 133 133 136 140 145 149 150 147 142 139 137 139 136 130 128 129 126 126 126
224 234 230 246 230 233 218 216 260 213 223 251 233 234 95 121 222 247 247 322 16 81 152 164 158 153 78 20 159 157 70 53 50 70 86 109 130 133 145 142 143 144 136 138 144 146 149 154 156 157 158 157 153 151 149 146 144 142 141 140 142 145 147 146 145 147 149 149 146 145 142 139 137 135 135 134 133 134 132 130 131 134 140 144 145 145 144 143 144 146 139 135 136 134 129 128 128
226 235 215 210 207 231 248 209 255 250 235 255 220 117 86 205 220 332 34 30 69 99 141 142 150 142 171 179 173 184 117 78 73 83 105 134 136 138 146 142 143 142 135 136 142 147 149 153 156 158 158 156 154 152 150 147 146 144 141 140 141 144 148 149 148 147 148 147 144 143 140 139 137 135 133 131 132 132 133 132 132 134 137 138 141 144 144 146 148 148 143 141 140 139 134 133 131
226 237 218 210 203 223 232 219 249 265 252 260 237 95 76 282 4 30 90 98 100 129 142 144 147 130 282 156 139 130 102 97 86 92 124 140 136 140 144 140 141 141 135 136 142 145 149 153 157 159 158 156 154 154 151 149 148 145 142 141 141 143 146 148 148 147 146 144 141 140 139 139 137 138 136 135 134 133 137 138 136 137 138 137 139 142 143 147 149 150 147 144 143 143 139 138 137
231 225 225 239 237 222 239 242 247 255 261 279 291 74 58 38 45 90 116 114 128 157 163 173 139 132 315 51 55 121 102 99 97 111 125 123 130 137 141 141 139 140 136 137 142 142 149 153 155 158 159 157 155 155 154 152 150 147 144 142 141 143 146 148 149 149 148 146 144 143 142 143 143 145 145 144 142 141 144 143 141 142 143 137 139 141 144 148 149 149 146 146 144 142 140 143 144
212 198 214 244 265 318 254 239 235 239 257 321 310 54 55 63 81 109 119 122 145 157 182 213 150 152 147 62 39 37 69 106 120 125 129 128 135 138 140 141 136 136 134 136 140 142 149 151 153 156 158 158 156 156 157 155 152 149 146 144 143 143 146 150 152 152 152 150 148 147 148 150 149 150 154 153 148 146 145 147 145 147 146 136 141 142 145 148 147 147 145 146 142 139 145 150 151
205 194 197 223 223 242 248 242 246 241 108 358 309 43 69 92 95 119 139 150 162 158 184 216 180 159 123 112 81 55 45 112 117 124 131 131 136 142 142 140 133 131 131 131 133 140 148 150 154 156 157 158 157 158 159 157 154 152 149 147 146 145 147 150 152 153 153 152 149 149 151 152 154 156 160 159 153 150 147 151 149 149 148 137 142 144 147 149 147 148 145 146 144 145 150 150 150
214 216 197 227 215 205 246 251 251 271 95 115 301 50 73 82 61 193 163 176 173 157 166 152 195 207 104 163 132 80 97 106 113 121 126 131 139 144 141 139 135 130 130 130 129 135 145 151 153 156 158 159 159 161 161 159 158 156 153 150 150 149 149 151 153 152 151 151 150 151 152 154 159 162 167 167 159 152 148 155 153 147 145 139 142 147 150 150 151 153 152 151 151 154 153 151 146
208 223 210 235 237 218 240 247 232 263 233 197 205 153 81 358 300 264 214 186 157 166 158 144 220 240 120 138 106 106 116 111 119 122 127 133 141 143 139 140 135 130 129 130 131 132 141 149 151 155 159 160 159 161 161 161 161 160 157 154 154 154 152 153 153 151 150 149 151 152 156 159 161 169 174 174 162 152 146 150 152 145 146 143 142 150 151 154 160 162 161 158 155 157 155 152 145
203 221 236 237 245 236 234 234 205 221 236 227 212 212 242 262 267 256 243 200 167 184 143 142 234 146 139 136 112 118 123 124 127 128 134 137 142 143 138 137 131 130 129 129 133 134 138 145 149 155 160 160 160 161 159 160 164 163 162 159 158 158 156 155 152 150 150 151 153 153 156 157 160 173 177 173 165 152 142 141 148 148 150 146 144 150 155 162 167 165 161 160 163 160 155 152 145
210 204 243 244 237 241 241 227 193 205 221 243 234 224 260 254 261 259 248 230 203 197 152 181 174 125 136 133 117 118 127 133 133 133 139 140 142 141 136 133 130 129 128 129 133 135 136 141 147 152 158 161 163 163 158 159 163 166 166 164 162 161 161 158 153 151 152 152 153 151 150 150 154 170 174 171 167 154 144 140 145 149 149 147 149 154 164 171 166 160 159 162 167 161 155 155 148
229 193 217 240 240 247 263 266 221 237 228 237 213 132 35 269 251 256 248 235 219 208 187 194 151 141 151 131 124 129 138 143 134 137 141 139 139 140 137 131 131 128 126 129 131 133 133 136 144 149 155 160 165 164 161 161 161 167 170 169 166 162 163 160 155 153 154 153 151 148 145 145 147 158 166 168 167 155 148 147 149 154 151 151 155 164 178 175 162 160 163 164 163 161 160 164 163
240 215 222 238 260 266 268 274 238 257 242 214 155 92 26 290 257 255 254 242 222 217 195 168 151 183 164 119 134 141 147 147 137 141 141 137 139 140 136 131 131 128 126 128 128 132 134 134 138 144 151 155 161 163 164 163 160 166 171 173 168 162 163 161 160 160 160 160 155 150 145 143 141 147 155 158 160 152 150 152 153 157 155 157 162 172 189 174 167 169 165 163 163 166 170 171 170
243 239 248 246 254 261 253 256 225 246 225 132 94 54 331 290 281 264 253 244 227 220 160 140 171 193 155 125 148 156 150 145 145 146 141 137 139 138 134 136 132 127 130 130 128 132 136 137 136 139 145 148 155 161 166 166 164 168 173 175 171 165 163 163 168 168 169 169 166 160 151 148 145 143 145 148 151 146 151 154 150 155 155 163 172 174 189 179 175 176 170 165 166 171 175 176 171
245 229 253 256 238 237 225 245 259 254 188 114 80 11 314 293 286 263 238 241 220 149 118 144 197 197 172 182 167 160 149 146 151 145 138 135 137 134 132 142 135 129 132 131 131 135 139 138 137 140 143 146 152 158 163 166 169 170 174 177 174 172 168 169 173 173 173 174 177 173 163 155 150 143 140 144 149 147 154 158 154 158 157 162 179 190 200 190 183 184 182 181 180 178 183 192 193
240 237 238 249 240 228 194 211 234 241 146 115 55 4 323 317 224 262 233 248 206 144 181 174 192 183 186 203 148 148 147 145 149 141 137 136 136 134 134 146 137 130 134 135 136 139 143 138 138 144 145 149 150 157 164 164 167 171 177 180 180 180 176 175 177 179 175 177 184 183 174 161 151 144 137 141 150 154 160 167 169 166 168 171 175 196 220 206 195 197 198 198 196 190 193 201 207
216 236 236 237 230 227 187 200 210 256 94 94 2 5 331 332 189 258 228 241 213 169 190 156 154 126 128 145 133 144 145 144 147 143 143 142 142 143 142 147 139 133 137 138 138 140 144 139 139 141 145 149 146 153 160 163 168 173 177 182 186 187 186 183 182 185 180 181 188 191 185 165 158 154 149 155 158 168 176 175 179 176 187 190 176 195 223 220 201 200 202 202 202 200 200 203 213
211 225 232 235 225 219 167 220 290 346 342 342 341 354 337 333 192 206 199 211 196 172 171 147 144 122 114 128 135 143 142 146 152 151 151 152 153 152 148 148 144 141 139 137 137 141 141 140 144 141 142 147 147 148 151 160 170 175 175 178 187 190 192 191 185 186 184 187 189 192 191 176 185 178 161 171 176 183 190 182 189 194 201 205 188 195 217 224 205 195 198 200 201 202 200 200 208
226 232 230 238 230 179 43 312 322 314 305 324 326 337 335 327 326 212 208 191 178 174 167 165 156 131 127 132 138 143 145 151 156 155 155 158 157 152 148 147 146 144 143 143 144 148 144 144 150 146 144 145 146 144 144 155 164 169 168 169 178 184 192 193 189 188 191 197 193 185 190 196 218 212 169 173 183 190 204 207 211 216 211 214 215 191 205 220 211 193 194 194 195 194 191 196 201
223 235 235 235 233 265 295 262 278 295 309 314 316 324 322 320 330 251 218 184 181 185 172 174 168 147 143 140 143 147 151 155 156 157 160 160 155 150 148 147 149 147 148 150 150 154 150 148 153 152 152 149 148 145 143 149 156 161 159 156 165 174 185 191 194 197 201 207 199 187 194 209 219 218 193 193 200 201 216 221 222 225 219 222 221 200 204 214 207 195 192 188 187 188 189 199 205
202 218 246 261 51 264 243 231 268 295 306 306 308 312 320 20 254 256 217 186 192 195 176 179 173 154 149 148 150 153 154 156 158 162 163 158 152 149 149 148 149 148 154 155 153 158 158 154 156 157 157 156 153 153 154 153 155 158 155 154 159 169 179 186 193 197 201 204 201 196 200 209 211 209 211 219 223 219 220 223 229 230 225 227 224 210 208 205 194 190 189 187 189 194 197 198 200
215 218 255 292 281 260 256 268 289 302 297 292 297 307 334 323 246 241 219 200 191 179 161 173 174 157 153 152 153 156 157 159 162 164 163 157 152 150 149 150 147 151 160 161 162 165 164 161 158 160 162 162 160 160 164 162 164 161 155 157 159 167 178 186 191 193 196 197 199 203 199 203 211 213 222 231 236 234 236 247 239 231 233 235 230 218 209 199 191 187 186 192 198 199 202 200 196
239 220 237 259 260 268 279 286 286 291 286 286 300 318 323 279 234 206 220 203 59 105 137 151 166 156 152 151 153 158 159 163 165 163 163 160 156 153 153 153 152 158 165 164 165 165 165 165 160 161 164 165 166 168 170 170 175 171 160 161 167 173 181 192 196 194 197 197 198 201 199 203 215 223 230 235 239 236 250 269 244 226 233 234 232 224 211 206 206 200 192 197 206 206 206 207 203
244 240 219 240 258 266 266 273 270 276 280 288 300 301 288 269 219 179 199 114 55 121 144 140 148 148 149 150 156 162 160 164 166 163 165 164 159 155 155 156 157 162 164 162 161 161 166 168 164 163 161 162 167 174 176 176 178 176 170 167 175 180 182 197 203 200 203 203 202 204 204 209 221 231 235 235 230 227 247 275 237 221 228 227 228 227 219 220 222 220 206 199 206 209 208 212 214
232 250 242 244 253 251 254 263 269 275 277 285 286 278 283 283 326 170 160 106 75 139 150 147 145 148 152 154 161 164 162 163 164 163 165 162 157 157 160 161 163 166 162 159 160 163 167 166 166 165 159 158 162 170 179 183 177 178 178 173 176 179 183 198 204 203 205 206 207 211 213 215 226 238 238 234 230 233 249 256 218 214 226 224 224 226 224 231 234 231 218 205 199 197 202 212 221
207 239 249 247 249 248 260 267 267 271 272 288 272 246 69 140 200 162 124 97 99 139 156 153 150 154 156 157 164 166 164 165 165 162 161 157 158 165 169 168 169 170 164 162 163 164 164 165 168 167 162 163 163 168 181 191 186 192 186 176 176 179 185 194 197 203 207 207 211 219 222 220 228 242 241 236 243 250 255 251 224 215 220 219 216 215 228 241 242 237 222 209 199 196 202 208 220
159 241 260 257 257 255 268 265 258 254 249 274 256 147 97 171 206 154 109 107 133 148 155 157 158 158 159 160 164 168 167 169 165 159 161 163 169 175 176 175 172 168 164 164 165 164 166 167 168 169 169 169 176 180 181 189 203 217 204 187 185 187 190 191 195 203 202 197 199 215 225 224 230 240 241 240 254 262 262 259 243 228 219 218 213 202 219 238 237 236 218 206 201 202 203 202 214
219 260 261 242 237 232 242 238 229 225 196 239 248 132 125 186 190 79 96 131 167 162 159 166 168 159 162 162 163 170 171 172 169 166 173 174 176 180 178 176 172 167 165 165 166 164 168 171 167 169 171 176 194 198 183 192 204 213 218 206 194 190 195 197 198 195 190 194 194 201 218 232 235 239 246 251 260 269 270 261 256 242 220 213 214 200 201 219 215 214 201 198 201 197 194 195 208
245 261 261 221 196 187 189 184 182 201 152 69 261 189 164 164 87 72 101 152 180 179 170 171 173 163 164 164 164 175 174 173 173 175 181 180 178 177 175 174 172 167 164 166 166 164 169 174 168 170 179 184 203 219 200 200 196 195 205 209 198 191 199 203 203 198 193 205 205 192 209 246 249 248 254 254 255 266 270 259 260 253 222 208 210 199 191 200 194 192 186 184 189 187 182 190 203
234 233 255 223 189 170 135 148 168 167 97 355 253 216 167 132 84 77 110 162 183 185 177 174 173 167 166 166 170 176 175 175 176 179 181 179 176 174 174 174 175 168 159 166 168 166 169 172 171 176 185 188 198 217 223 202 185 180 183 189 200 203 201 192 201 210 204 206 200 177 196 234 245 248 253 243 244 260 273 265 258 256 221 203 205 200 194 191 182 181 178 172 178 184 182 194 208
215 203 225 225 202 144 113 128 177 163 104 280 245 239 173 125 97 79 103 168 195 189 179 178 174 170 170 170 177 177 175 180 179 179 180 179 176 174 176 177 179 170 161 167 169 170 171 172 173 174 182 186 184 189 194 167 143 157 163 159 164 200 202 170 147 183 191 197 197 186 204 231 250 271 290 267 257 267 277 265 244 242 211 198 203 202 195 188 184 176 163 164 176 189 200 217 223
207 206 189 204 211 128 114 97 95 140 120 200 244 248 187 120 92 80 112 178 204 201 182 182 181 177 178 176 183 183 177 181 182 179 179 179 177 176 179 181 182 174 166 167 167 171 173 173 174 170 178 179 169 169 157 130 124 130 129 126 125 130 202 185 145 147 153 166 185 193 226 268 294 335 18 35 48 269 272 251 233 221 196 199 204 202 194 180 181 171 151 158 174 189 224 234 228
200 231 178 186 211 149 133 117 79 93 139 179 232 258 227 117 100 96 128 196 206 208 184 183 188 180 185 186 187 188 181 180 183 181 178 180 180 179 183 186 186 180 173 171 170 173 173 172 172 168 172 169 163 162 153 147 140 134 124 116 117 115 183 198 179 180 161 129 143 153 116 58 33 32 36 44 67 294 262 241 232 203 198 206 202 193 189 180 176 173 158 146 149 182 243 264 277
181 221 167 167 222 190 149 138 115 113 207 178 191 254 269 105 132 131 150 204 211 215 194 186 193 186 191 195 193 194 188 184 185 181 178 182 183 181 184 186 185 179 176 178 176 176 174 170 171 168 165 160 158 159 158 156 147 144 142 128 124 125 126 136 164 179 171 152 118 111 89 69 55 53 53 58 64 59 177 230 225 196 205 211 204 188 184 188 191 191 190 199 232 235 251 270 281
176 195 186 164 193 232 173 130 105 87 219 187 185 234 242 113 183 167 166 202 216 219 207 198 199 194 197 201 203 201 196 193 187 180 179 181 182 180 183 183 181 178 178 181 179 178 176 171 169 167 162 160 158 162 166 165 165 169 163 153 145 142 132 117 115 131 159 168 108 89 70 60 49 51 56 63 69 75 97 216 223 195 191 197 200 200 199 203 204 202 209 226 244 254 256 259 259
263 202 233 196 182 208 154 97 71 27 239 206 199 242 246 257 178 161 168 202 223 219 209 214 211 204 206 206 210 208 207 199 177 175 178 178 180 180 181 182 180 181 181 182 181 180 179 175 170 166 164 163 161 166 176 180 179 175 172 169 156 146 132 116 91 47 64 70 69 66 60 49 37 41 39 44 71 98 115 167 203 190 145 157 175 200 213 217 218 216 222 232 241 251 253 248 244
279 234 237 228 218 204 139 108 87 28 276 209 160 275 256 269 61 139 164 198 222 219 209 217 219 216 215 214 215 212 214 200 165 168 174 176 180 178 178 181 178 177 179 182 183 183 183 179 172 168 166 167 167 171 177 183 177 168 171 173 156 146 137 132 128 93 69 71 69 66 60 46 40 44 33 39 57 86 147 162 160 156 161 169 165 179 209 218 225 229 233 239 238 237 240 238 233
241 236 230 220 229 213 127 119 111 60 277 210 153 259 241 205 188 139 166 204 216 217 214 216 219 224 228 225 224 220 218 203 169 167 174 176 180 180 179 181 181 180 180 183 184 184 183 180 174 170 168 170 175 175 173 179 179 166 162 159 149 139 129 121 117 107 99 89 79 69 61 55 58 62 55 59 61 53 75 135 130 144 159 170 171 172 191 207 220 225 228 236 234 227 226 228 227
226 230 234 226 219 201 135 138 143 114 270 241 162 259 252 205 208 186 184 206 205 210 224 225 222 225 230 231 229 227 223 211 192 181 179 180 182 183 184 186 188 187 182 182 183 181 179 179 176 173 172 173 179 181 175 172 168 152 142 140 131 125 117 100 97 104 105 95 81 71 69 69 71 72 68 68 68 63 58 64 73 97 127 146 156 161 175 200 216 212 207 222 226 219 213 216 218
223 221 226 222 176 207 195 155 158 157 272 285 268 264 264 227 216 210 192 196 185 189 223 235 241 241 241 243 240 234 228 219 211 199 184 181 183 184 188 190 187 184 182 179 180 179 179 180 178 175 174 174 181 184 176 165 160 151 137 131 122 117 120 113 109 110 107 95 81 75 75 72 70 69 68 70 78 81 78 77 73 73 79 100 124 124 120 146 216 206 204 218 220 215 209 211 213
203 219 237 235 170 227 257 141 160 186 190 273 269 255 253 224 213 206 178 185 199 198 207 211 221 237 246 253 251 244 237 231 225 212 194 187 187 187 190 191 185 183 183 180 179 179 178 180 179 176 173 174 182 185 177 166 161 156 145 139 133 127 132 135 133 126 117 103 86 81 81 74 70 70 69 71 80 88 90 86 83 83 77 77 88 95 96 92 83 81 220 209 200 204 207 215 220
197 206 231 249 227 222 249 206 209 232 199 188 277 267 245 190 206 202 171 184 193 186 198 204 199 206 220 234 241 243 242 239 236 225 210 197 193 190 190 189 186 187 186 181 180 180 179 179 178 174 171 174 182 187 184 174 165 162 157 154 152 149 149 148 140 130 121 103 88 88 87 82 80 79 77 78 82 88 92 91 87 87 85 79 80 86 93 90 79 63 30 39 71 67 143 207 210
218 182 202 226 233 218 227 224 226 255 240 137 256 274 261 190 207 186 168 196 197 185 189 191 197 207 215 226 230 237 240 240 241 236 226 212 200 194 192 189 188 190 186 179 178 178 177 175 174 173 171 174 182 188 190 182 174 172 169 166 162 161 155 140 131 123 120 110 96 95 93 90 89 87 85 84 87 89 91 91 88 87 87 86 85 86 89 85 79 76 59 51 50 45 48 104 147
236 139 187 206 214 211 220 230 234 266 302 191 213 256 274 252 218 153 165 224 222 209 200 184 187 201 214 237 241 246 251 253 254 246 235 224 211 202 196 191 191 190 183 176 174 175 175 174 176 176 173 176 183 190 193 190 183 179 178 172 167 167 155 136 135 131 126 121 109 101 99 95 91 88 89 91 93 93 92 89 86 85 85 85 88 88 87 86 83 81 76 70 68 62 57 65 87
67 108 200 204 210 215 219 239 250 258 286 254 217 210 253 256 218 160 187 230 220 203 197 183 172 170 184 225 253 264 269 270 269 261 248 234 221 211 203 196 192 187 181 177 174 172 171 175 180 179 177 180 184 190 194 195 191 185 183 176 169 169 160 145 146 143 136 132 124 115 110 105 96 90 92 97 99 96 92 89 86 84 82 80 84 87 87 89 88 84 80 78 79 79 72 68 68
105 158 188 189 201 214 223 247 261 238 248 267 238 185 245 270 239 201 201 227 218 178 171 170 106 85 67 31 317 295 287 280 274 268 261 247 231 219 210 201 191 184 181 176 171 170 172 177 182 181 181 182 186 191 195 198 196 191 188 180 172 170 166 162 157 150 150 148 140 134 128 123 114 104 103 105 105 100 95 91 88 85 84 82 83 86 89 89 89 88 85 83 82 82 79 75 71
147 180 188 193 200 208 222 242 264 254 250 257 208 174 242 274 256 230 193 103 22 40 207 8 17 2 1 2 344 331 324 308 289 276 268 250 233 218 209 200 186 178 177 173 168 171 174 179 181 180 183 186 188 192 196 199 200 198 195 187 179 175 173 175 172 165 165 164 158 152 146 141 133 126 122 118 114 108 101 95 92 89 87 85 84 84 86 88 89 90 88 86 84 81 80 79 73
190 204 209 216 215 214 231 229 227 251 257 223 143 159 217 253 257 190 114 89 58 27 357 359 352 348 354 349 343 344 338 326 307 291 278 248 222 203 196 192 181 172 170 170 170 172 176 179 178 178 185 190 191 194 197 200 201 201 200 194 186 181 180 185 187 182 179 176 172 165 157 155 151 147 143 136 132 123 113 106 100 96 92 90 88 85 84 85 87 89 88 86 84 82 80 79 74
210 222 225 233 233 225 239 238 229 245 240 125 131 166 215 249 243 124 118 97 74 51 17 0 347 351 353 346 350 353 349 348 334 314 293 247 212 189 185 186 181 173 173 174 172 173 176 177 179 182 188 192 193 195 196 199 203 204 204 201 194 188 187 192 196 193 191 187 182 176 170 170 168 166 163 156 151 142 128 119 110 104 102 99 96 93 89 86 86 87 88 87 83 82 79 78 76
212 224 229 240 245 240 243 243 245 252 220 114 130 175 233 251 207 106 109 97 82 74 50 21 357 352 347 349 2 10 12 10 357 347 334 253 206 185 180 185 186 182 181 181 176 177 177 177 184 189 191 192 194 196 197 199 204 207 207 206 200 195 191 193 199 199 197 196 189 184 183 185 182 179 178 170 163 157 144 132 122 113 111 109 105 101 95 90 88 87 87 88 84 81 79 77 76
218 232 238 245 251 251 256 259 260 264 250 126 141 183 246 247 136 94 103 109 102 91 79 57 13 358 1 12 20 25 27 24 17 13 13 9 188 178 173 178 185 187 188 185 181 181 180 182 189 194 192 192 193 195 196 199 205 209 210 212 208 202 197 195 199 202 200 201 197 190 189 192 192 188 184 176 170 166 155 143 134 124 119 116 110 107 102 95 91 88 85 84 83 81 81 77 75
213 229 238 245 253 251 259 279 298 296 280 219 183 220 256 206 125 127 131 127 123 118 112 106 75 56 51 42 33 31 33 31 28 27 25 37 96 130 144 160 169 175 180 181 182 183 183 187 194 196 193 192 193 194 195 199 204 207 210 214 214 210 205 200 200 201 201 202 201 199 198 195 194 191 185 178 175 172 164 155 147 139 132 127 120 115 111 105 100 95 90 87 83 81 81 77 72
197 223 240 247 281 264 260 251 116 283 269 254 229 237 235 180 159 155 151 145 142 144 142 127 101 84 70 51 36 32 36 36 37 38 31 31 65 90 103 129 152 165 171 175 181 183 187 191 195 194 193 191 190 191 193 195 196 201 210 216 218 217 216 211 204 202 205 208 209 206 203 197 192 190 185 180 179 176 171 165 158 153 146 140 137 131 127 123 117 111 106 101 97 94 88 78 68
248 238 242 214 259 257 253 253 230 227 253 255 239 238 233 231 211 164 164 165 155 156 149 130 115 95 76 59 48 40 37 37 42 50 45 37 49 64 76 92 120 157 175 180 187 189 194 200 201 198 198 196 187 181 185 185 186 200 213 220 223 223 222 220 214 208 210 215 217 212 205 199 193 189 184 181 181 179 175 173 167 162 158 153 150 145 142 139 132 127 123 118 113 112 108 94 80
257 276 262 224 246 243 226 244 255 250 257 258 246 241 239 249 226 165 176 178 161 162 156 140 123 101 84 68 57 47 41 37 38 45 46 45 50 56 62 72 89 111 132 162 190 199 205 215 218 215 212 207 197 178 178 183 192 206 215 220 224 225 224 223 221 215 211 214 220 219 213 206 196 190 186 182 183 182 179 178 174 170 166 163 160 156 153 149 144 140 134 128 128 130 129 120 104
231 256 244 233 253 261 245 240 252 258 261 263 261 254 244 255 240 181 184 178 164 164 156 141 123 106 95 80 66 51 46 41 37 43 46 49 54 57 60 61 68 82 99 111 133 190 209 217 220 225 231 228 225 216 203 199 201 210 216 220 223 224 225 225 226 224 219 217 220 220 221 217 203 194 189 185 185 186 183 182 179 176 173 170 168 164 162 159 153 148 143 139 139 141 142 138 136
226 233 235 229 234 259 262 249 245 254 261 261 265 264 257 268 256 203 192 176 166 165 154 144 129 115 104 92 81 65 57 49 42 45 49 53 57 59 61 61 60 57 63 87 96 94 169 227 227 235 252 252 247 245 240 231 215 214 219 222 225 227 226 226 226 228 229 228 224 219 220 220 210 202 194 188 189 189 187 186 183 181 179 175 174 171 169 168 163 155 149 148 149 151 151 148 151
282 261 252 248 244 251 257 253 248 248 258 263 265 266 268 311 269 212 188 172 168 164 155 147 136 125 116 104 98 88 76 66 58 55 53 55 57 60 62 62 63 58 48 57 73 72 47 0 315 296 286 275 268 262 256 250 237 229 228 228 231 233 232 231 229 229 231 233 230 223 219 216 212 207 200 194 192 191 190 189 186 184 183 180 178 176 174 173 170 165 160 160 161 160 159 156 158
Height
785 786 785 785 784 784 781 778 783 777 775 778 766 763 767 763 765 766 766 765 765 763 758 758 756 755 760 762 761 760 762 764 769 777 785 781 776 777 779 781 783 784 786 788 790 793 796 798 800 801 803 804 805 807 808 809 810 810 811 811 812 812 813 814 815 816 816 817 818 819 820 821 822 822 823 824 825 825 826 827 827 828 828 828 828 829 829 830 830 831 831 832 832 833 833 833 833
786 786 785 785 783 784 778 776 784 776 775 779 763 761 764 762 767 766 765 765 765 762 757 757 756 758 760 758 758 762 766 765 765 771 778 778 778 779 780 782 784 785 786 788 791 793 796 798 800 802 803 804 806 807 809 810 811 811 812 812 813 813 814 815 816 817 817 818 819 819 821 821 823 823 824 825 825 826 827 828 828 829 829 829 829 830 830 830 831 831 832 832 833 834 834 834 834
786 785 784 785 782 780 776 778 784 775 777 777 761 759 762 763 765 763 764 763 762 760 759 758 760 762 762 765 763 766 771 767 766 770 776 778 778 780 781 783 784 786 787 789 792 794 797 799 800 802 803 804 806 807 809 810 811 812 813 813 814 814 815 816 817 818 818 819 819 820 821 822 823 824 825 826 826 827 828 829 829 830 830 830 831 831 831 831 831 832 832 833 834 834 834 835 835
785 785 784 782 780 780 778 781 779 774 777 771 763 762 763 765 764 763 764 762 761 760 761 762 764 763 763 769 764 765 772 768 768 771 776 779 778 781 782 784 785 787 788 790 793 794 797 799 801 802 804 805 806 808 809 810 812 813 813 814 814 815 816 817 818 819 819 820 821 821 822 823 824 825 825 826 827 828 829 830 830 830 830 831 831 832 832 832 833 833 833 834 834 835 835 835 836
785 785 783 780 780 779 776 778 775 775 774 765 763 764 764 764 764 766 764 763 762 762 762 762 767 765 763 767 764 767 771 770 770 771 776 779 780 782 783 785 787 787 789 791 793 796 798 800 802 803 804 805 806 808 809 810 812 813 814 814 815 816 817 818 819 820 821 821 821 822 823 824 825 825 826 827 828 828 829 830 831 831 831 832 832 833 833 833 834 834 834 834 834 835 836 836 836
784 783 782 779 778 775 777 779 776 773 767 762 765 764 765 765 765 767 766 765 762 761 762 762 766 766 768 768 765 768 770 772 773 773 777 780 782 784 784 786 787 789 790 792 794 796 799 801 802 803 805 806 807 808 810 811 812 814 815 815 815 816 817 818 820 820 821 822 822 823 824 825 825 826 826 827 828 829 830 831 831 832 832 832 833 834 834 834 834 835 835 835 835 835 836 837 837
782 782 780 780 777 776 781 778 771 767 763 763 766 765 766 765 765 766 767 767 765 763 762 763 761 765 773 770 769 773 772 773 773 776 779 781 784 784 785 787 788 790 791 794 796 797 799 801 802 803 805 806 808 809 810 811 813 814 815 815 816 817 818 819 820 821 822 822 823 824 825 826 826 827 827 828 828 829 830 831 832 832 833 833 834 834 835 835 835 836 836 836 836 836 837 837 838
782 779 777 780 779 779 780 774 769 767 765 765 764 765 766 765 764 765 766 766 766 764 763 764 760 767 774 767 772 777 774 775 775 779 781 782 785 785 786 787 789 791 793 795 796 798 800 802 803 804 805 806 807 809 811 812 813 814 815 816 816 817 818 820 821 821 822 823 824 825 826 826 827 827 827 828 829 829 830 831 832 833 834 834 834 835 836 836 836 836 836 836 837 837 838 838 838
780 778 777 780 779 778 777 773 770 768 766 765 764 765 765 765 765 765 765 764 764 764 763 763 761 769 772 769 776 776 774 778 778 781 782 784 785 785 787 788 790 792 794 796 797 799 800 802 804 805 806 807 808 809 811 812 813 815 816 816 817 818 819 820 821 822 822 823 824 825 826 827 827 828 828 829 829 830 831 832 832 833 834 834 835 835 836 837 837 837 837 837 838 838 839 839 840
777 777 778 779 777 780 777 771 770 769 766 762 762 763 764 764 764 764 764 763 762 763 762 760 762 767 770 773 778 776 776 779 780 783 783 785 785 786 788 789 791 793 795 797 798 799 801 803 804 806 807 808 809 810 811 812 814 815 816 817 817 818 819 820 821 822 823 824 825 825 826 827 828 828 829 829 830 830 831 832 832 833 834 835 835 836 837 837 837 837 837 838 838 839 839 840 841
778 775 775 780 780 780 773 768 769 768 765 761 761 760 761 762 764 764 763 762 760 762 762 761 765 767 770 774 777 777 777 780 781 783 784 785 786 787 789 790 792 794 796 797 799 800 801 803 805 807 807 808 810 810 811 813 814 816 817 818 818 818 819 821 821 822 823 824 825 826 827 827 828 829 830 830 830 831 831 832 832 834 835 835 836 837 837 837 837 837 838 838 839 840 840 841 842
779 775 776 782 778 773 769 769 770 767 764 763 762 760 761 762 765 766 763 763 760 762 762 761 763 764 772 775 775 777 777 780 782 784 785 786 787 788 789 791 793 795 797 798 800 802 802 804 806 807 808 809 810 811 812 813 815 816 817 818 818 819 820 821 822 823 823 825 826 827 827 828 829 829 831 831 831 831 832 832 833 834 835 836 836 837 837 838 838 838 838 839 839 840 841 842 842
776 773 777 779 772 770 772 772 770 770 767 761 761 761 762 763 766 764 761 761 759 762 758 756 758 760 770 774 774 776 777 780 782 784 785 786 788 788 790 792 794 796 798 799 801 802 804 805 806 807 808 810 810 812 813 814 816 816 817 818 819 819 820 821 822 823 824 825 826 827 828 828 829 830 831 832 832 832 833 833 834 834 835 836 836 837 838 838 838 838 839 839 840 841 842 842 843
773 771 774 776 772 773 773 772 769 771 765 758 761 762 762 763 763 760 760 762 759 758 753 750 754 761 770 774 777 776 775 780 782 785 786 787 788 789 791 793 795 797 799 800 802 803 804 806 807 808 809 810 811 812 813 814 815 816 817 818 819 820 820 822 823 824 824 825 826 827 827 828 829 830 831 832 832 832 833 834 834 835 835 836 836 837 837 838 839 839 839 840 840 841 842 843 843
772 770 774 775 775 775 772 771 768 769 763 758 762 762 762 760 759 760 759 762 757 750 751 752 753 762 771 773 777 775 773 779 782 785 786 788 789 790 792 793 795 797 800 801 802 804 805 806 807 808 809 810 811 812 813 814 815 816 817 818 819 820 821 822 823 824 825 825 826 826 827 828 829 830 831 831 831 832 833 834 834 835 836 836 836 837 837 838 839 839 840 840 840 841 842 843 844
770 770 776 778 776 775 771 769 768 769 763 759 760 759 763 759 757 760 755 755 755 752 754 757 755 760 765 763 768 770 773 778 781 785 787 789 790 791 793 794 796 797 800 801 803 804 805 806 807 809 810 811 812 812 813 813 815 816 818 819 819 820 821 822 823 824 825 826 826 826 828 829 829 830 831 832 832 832 833 834 834 835 835 836 836 836 837 838 839 840 840 840 841 842 843 844 844
770 773 778 779 776 773 769 767 767 768 763 759 758 759 765 761 756 756 752 752 756 756 756 757 756 758 760 760 763 768 773 778 781 785 786 789 790 792 793 794 796 798 800 801 803 804 805 807 808 809 810 811 812 812 813 813 815 816 818 819 820 820 821 822 823 824 825 826 826 826 829 830 831 831 832 832 832 832 833 833 834 834 835 836 836 836 837 838 839 840 840 841 841 842 843 844 845
773 776 779 777 772 768 764 764 763 764 764 762 760 760 764 763 758 755 755 756 755 757 758 758 759 758 759 761 765 769 774 778 781 784 786 788 789 790 792 794 796 798 800 802 803 804 805 807 808 809 810 811 812 812 813 813 815 816 818 819 819 820 821 822 823 823 824 825 825 826 828 829 830 831 831 832 832 832 832 833 834 834 835 836 836 837 837 838 839 840 841 841 841 842 843 845 845
773 773 777 773 766 763 762 764 764 764 766 764 761 760 762 762 758 755 758 759 757 760 762 761 762 762 761 762 766 770 774 778 781 783 785 786 788 790 792 795 797 799 801 802 804 805 806 807 808 809 810 811 812 813 813 814 816 816 817 818 819 820 821 822 823 823 824 824 825 826 827 827 828 829 830 831 832 831 831 832 834 835 836 836 836 837 837 838 839 840 841 841 842 843 844 845 846
771 772 776 768 761 763 763 764 765 763 764 765 764 760 759 759 757 756 757 758 758 760 760 761 764 764 763 764 766 770 774 778 781 783 785 786 788 790 792 794 797 799 801 803 804 805 806 807 808 809 810 811 811 812 813 814 815 816 816 818 819 820 821 822 822 823 824 824 824 826 826 827 828 828 829 830 830 831 831 832 834 835 836 836 836 837 837 837 838 839 840 841 842 843 844 845 846
770 772 772 763 762 767 764 762 763 762 763 765 764 761 759 757 756 757 756 760 761 756 754 756 759 760 762 764 765 770 774 777 781 783 784 786 788 790 792 794 797 799 801 802 804 805 806 807 808 809 809 810 811 812 813 814 815 816 816 817 818 819 820 821 822 823 823 824 824 825 826 827 828 828 828 829 830 831 832 833 834 835 836 836 837 837 838 838 838 839 840 841 842 843 844 845 846
771 770 766 762 765 768 763 760 762 763 763 764 764 762 760 757 757 757 756 760 758 751 750 752 753 756 759 762 765 769 773 776 780 782 784 786 788 790 793 794 797 799 801 802 803 804 805 807 808 809 810 810 811 812 812 813 814 815 816 817 818 819 820 821 822 822 823 824 825 825 826 827 827 827 828 828 830 831 832 833 834 835 836 837 837 837 838 838 839 839 840 841 841 842 843 845 846
772 767 763 764 764 766 764 761 762 763 764 765 762 760 758 758 758 755 754 756 753 749 750 752 752 754 757 761 765 769 773 776 779 781 784 786 788 790 793 795 797 799 800 801 803 804 805 807 808 809 810 810 811 812 812 813 814 815 816 816 817 819 820 820 821 822 823 824 825 826 826 827 827 827 828 829 830 831 832 833 834 835 835 836 837 837 837 838 839 839 839 840 841 842 843 844 845
771 767 764 765 763 765 764 761 761 761 763 762 759 759 758 759 758 755 754 754 753 751 750 752 753 754 758 763 768 770 773 776 778 781 784 787 789 791 793 795 797 798 799 801 802 804 806 807 808 809 810 810 811 812 812 813 814 814 815 816 817 818 819 820 820 821 822 823 824 826 826 826 827 827 828 829 830 831 832 832 833 834 834 835 836 836 837 838 839 839 840 840 841 842 843 844 845
770 768 764 764 763 763 760 759 760 760 761 758 758 760 758 756 756 756 755 754 753 751 750 753 755 757 761 765 769 771 773 777 779 782 784 787 789 792 794 795 797 798 799 801 803 804 806 807 808 809 810 811 811 812 812 813 813 814 815 816 817 817 819 820 820 820 822 823 824 825 826 826 827 827 828 829 830 831 831 831 832 833 833 834 834 835 836 837 838 839 839 840 841 841 842 843 844
767 765 763 763 763 760 758 760 760 760 759 758 760 760 757 755 756 757 755 754 754 752 752 753 756 760 763 766 770 772 774 777 779 782 785 788 790 792 793 794 796 797 799 801 803 804 806 807 808 809 810 811 812 812 813 813 814 814 815 816 817 817 818 819 820 820 821 822 823 824 825 826 826 827 828 829 830 831 831 831 831 832 833 834 834 835 836 837 837 838 839 840 840 841 842 842 843
763 764 763 762 761 758 759 761 759 759 759 759 759 758 756 754 756 759 757 755 755 754 755 755 757 761 763 766 770 772 775 777 779 783 786 788 790 791 792 793 795 796 798 801 803 804 806 807 808 809 810 811 812 812 813 814 814 815 815 816 817 817 818 818 819 820 821 821 822 823 824 825 826 827 828 828 829 830 830 831 831 831 832 833 833 834 835 836 837 838 839 840 840 840 841 841 842
763 764 763 761 759 759 759 760 759 758 759 758 756 757 757 754 756 760 758 756 755 756 757 757 758 761 763 766 770 772 774 776 779 783 785 786 788 789 791 792 793 795 798 800 802 803 805 806 807 809 810 811 812 812 813 814 814 815 815 816 816 817 818 818 819 819 820 820 821 822 823 824 825 826 827 828 829 829 830 830 830 830 830 831 832 834 835 836 837 838 838 839 840 840 840 841 841
763 763 765 760 757 760 759 758 758 756 759 756 755 760 760 756 758 759 758 757 756 757 758 758 758 760 763 766 769 771 772 775 778 781 783 785 786 788 790 791 793 795 797 799 801 803 805 806 807 809 810 811 812 812 813 814 814 815 816 816 816 817 817 818 818 819 819 820 821 821 823 824 825 826 826 827 828 829 829 829 829 828 829 830 831 834 835 836 837 837 838 839 839 840 840 840 841
763 762 763 760 759 762 758 756 757 756 759 755 757 766 762 757 759 758 758 758 758 758 758 758 758 760 763 765 768 769 771 774 776 779 781 783 785 787 789 791 792 794 796 798 800 802 804 806 807 808 810 811 811 813 813 814 814 815 815 816 816 817 817 817 817 818 819 820 821 822 823 824 825 826 826 827 827 828 828 829 828 827 828 830 832 834 835 836 837 837 838 838 839 839 840 840 841
762 762 762 759 761 763 757 756 756 758 760 753 757 766 759 755 759 758 758 758 758 759 758 758 758 760 763 765 767 768 769 772 774 777 780 782 784 787 789 790 792 794 795 798 800 802 803 805 807 808 809 811 812 813 813 814 815 815 815 816 816 817 817 817 817 818 818 820 821 822 823 824 824 825 826 826 826 827 827 828 828 828 828 830 831 833 834 835 836 836 836 837 838 839 839 840 840
760 766 768 761 759 762 760 757 756 759 759 752 758 764 755 755 759 758 758 758 758 759 758 759 759 761 763 764 765 766 767 770 772 776 779 782 784 786 788 790 792 794 795 797 799 801 803 804 806 808 809 811 812 813 814 814 815 815 816 816 817 817 817 818 818 818 819 820 821 821 822 823 823 824 824 825 826 826 827 827 827 828 828 829 830 831 834 835 835 835 835 836 837 838 839 839 840
761 762 768 765 759 761 762 761 756 757 759 755 760 761 754 756 759 757 758 758 759 759 758 759 760 761 762 763 764 765 767 769 771 774 778 782 783 786 788 789 792 794 796 797 799 800 802 804 806 807 809 810 812 813 814 814 815 816 816 817 817 817 818 818 818 818 819 820 821 822 822 822 823 824 824 825 825 826 826 826 826 827 828 828 829 831 832 833 834 834 835 836 837 837 838 839 839
765 762 766 767 763 761 763 763 758 756 759 759 761 760 757 758 758 757 758 758 759 759 759 760 760 761 762 762 763 764 766 769 771 773 777 781 783 786 787 789 791 793 795 796 798 800 802 804 805 807 808 810 811 812 814 814 815 816 816 817 817 818 818 818 818 819 820 821 822 822 822 823 823 824 824 824 825 826 826 825 826 827 827 828 829 830 831 832 833 833 834 835 836 836 837 838 839
767 767 767 769 767 764 762 763 762 758 760 761 763 762 758 758 756 756 757 757 760 760 759 760 760 761 763 762 762 763 764 767 770 772 776 780 783 785 787 789 791 792 794 796 798 800 802 804 805 806 808 809 810 812 813 814 815 816 816 817 818 818 818 818 819 819 820 821 822 822 822 823 824 824 824 824 825 825 825 825 825 826 827 827 829 830 831 832 832 833 833 834 835 835 836 836 837
766 765 765 766 766 765 760 761 762 761 762 761 763 763 759 759 757 757 759 759 761 760 760 762 762 762 762 762 762 762 763 765 768 771 775 779 781 784 786 788 790 791 793 795 798 800 802 804 805 806 807 808 810 811 813 813 814 815 816 817 817 818 818 819 820 820 820 821 822 823 823 824 824 824 824 824 825 825 825 825 824 825 826 826 827 828 830 830 831 832 832 833 834 834 834 835 836
767 766 766 765 765 763 759 763 763 762 765 762 762 764 761 761 759 758 760 761 762 761 762 764 763 762 762 762 762 762 763 763 766 771 774 777 780 782 785 787 789 791 793 795 797 799 801 803 804 805 806 808 809 811 812 813 813 814 815 816 817 818 819 819 820 821 821 822 823 823 824 824 824 824 824 824 824 825 825 825 825 825 826 826 827 827 828 829 830 831 831 832 833 833 833 834 835
770 769 768 766 765 761 758 765 764 763 767 762 762 766 761 760 759 758 760 762 762 760 762 763 763 763 762 761 762 762 762 762 765 771 773 776 778 780 783 785 787 789 791 793 795 798 800 802 803 804 806 807 809 810 811 813 813 814 815 816 816 817 818 819 820 821 822 822 823 824 824 825 825 825 825 825 825 825 825 825 825 826 826 826 827 827 828 829 829 830 830 831 831 832 832 833 834
772 769 769 768 763 760 762 766 764 765 767 762 762 766 760 756 757 757 758 759 758 758 759 760 761 762 762 761 762 762 762 763 765 769 771 773 776 779 781 783 786 788 790 792 795 797 799 801 802 804 805 807 809 810 811 812 813 814 815 816 817 817 818 820 820 821 822 823 824 824 825 825 825 825 825 825 825 825 826 826 826 826 826 827 827 827 828 829 829 829 829 830 831 831 831 832 833
771 768 769 768 762 764 769 769 767 767 768 764 764 768 761 755 757 756 756 756 757 759 759 759 760 761 761 760 760 761 762 763 764 766 768 771 774 776 778 781 783 786 788 791 793 795 797 799 801 802 804 806 808 809 810 812 813 814 815 816 817 818 819 820 821 822 822 823 824 824 825 825 826 826 826 826 826 826 827 827 827 827 827 827 828 828 828 829 829 829 829 830 831 831 831 832 832
769 768 767 765 764 767 767 767 768 767 770 768 765 771 762 753 757 757 755 757 758 759 759 760 760 760 760 760 759 760 760 761 762 764 765 768 770 772 775 778 780 783 786 788 791 793 795 798 800 801 803 806 808 809 810 811 812 814 815 816 818 818 819 820 821 822 823 823 824 825 825 826 826 826 827 827 827 827 828 828 828 828 828 828 828 828 829 829 829 829 829 830 830 831 831 832 832
768 769 766 763 764 766 765 766 770 771 775 771 769 779 770 751 754 757 755 758 757 757 757 758 758 758 759 760 760 759 759 759 759 760 762 763 766 769 771 775 777 780 783 786 789 791 794 796 798 801 803 805 807 809 810 811 812 813 814 815 817 817 818 820 820 822 823 823 824 825 825 826 826 827 827 828 828 828 829 829 829 829 829 829 829 829 830 830 830 830 830 830 830 830 831 831 832
767 764 760 762 762 766 768 768 772 774 773 769 768 779 776 759 755 755 755 757 755 755 757 757 757 756 757 757 757 757 757 757 758 758 759 761 763 766 768 771 774 777 780 783 787 789 792 795 797 799 802 804 807 808 809 810 811 812 813 814 815 816 817 819 820 822 823 823 824 825 826 826 827 827 828 829 829 829 830 830 830 830 830 830 830 830 830 831 831 831 831 831 831 831 831 831 832
767 761 757 761 762 766 768 767 771 768 766 770 766 769 777 770 758 754 757 759 756 754 755 756 756 756 757 756 756 755 756 756 757 758 758 758 761 763 765 767 770 774 777 781 784 787 790 793 795 798 800 803 805 807 808 810 811 811 812 813 814 816 816 818 821 822 823 824 825 825 826 827 827 828 829 829 830 830 830 831 831 831 831 831 831 831 831 831 831 832 832 832 832 832 832 832 833
767 763 759 758 760 764 765 766 768 766 773 779 766 765 781 775 756 752 758 759 756 755 756 756 756 756 757 757 757 756 757 757 757 757 757 757 758 760 762 765 768 771 774 778 781 785 788 790 793 796 799 801 803 805 807 808 810 811 812 812 813 815 816 818 820 821 823 824 825 826 826 827 828 828 829 829 830 831 831 832 832 832 832 832 832 832 832 832 832 832 832 832 833 833 833 834 834
764 763 760 759 761 763 765 768 765 768 783 783 767 768 782 776 756 752 759 759 756 756 756 756 755 755 755 757 758 757 757 758 757 756 756 755 756 758 760 763 766 769 772 776 779 783 786 789 792 795 797 800 801 803 806 807 809 810 811 811 812 814 816 817 819 821 822 823 825 826 827 828 828 829 829 830 830 831 831 832 832 832 833 833 833 833 833 833 833 833 833 833 833 834 834 834 835
763 762 762 763 764 763 766 766 764 776 786 777 767 768 779 782 761 750 759 762 760 760 759 759 757 756 756 757 757 757 757 758 757 756 755 755 755 756 759 761 763 767 770 774 777 780 784 787 790 793 795 798 800 802 804 806 807 809 810 811 811 813 815 817 818 819 821 823 824 825 826 827 828 829 830 830 831 831 832 832 832 833 833 833 834 834 834 834 834 834 834 834 835 835 835 835 835
763 762 763 770 772 770 772 770 773 789 788 773 767 765 777 786 767 752 758 760 760 763 762 762 762 760 759 759 758 757 758 758 757 756 755 754 753 754 757 760 762 765 768 771 775 778 782 785 788 791 794 796 798 800 802 804 806 807 809 810 811 812 813 815 817 818 820 821 823 824 826 827 828 829 830 830 831 831 832 832 833 833 833 834 834 834 834 834 835 835 835 836 836 836 836 837 837
764 764 767 778 782 784 788 782 779 783 779 771 768 770 778 777 761 756 761 760 760 764 763 764 764 763 762 761 759 758 758 757 756 755 754 753 752 752 755 759 761 763 766 769 773 776 779 783 786 788 791 793 795 797 800 802 804 805 807 809 810 811 812 814 816 817 819 820 822 823 825 826 827 828 829 830 831 831 832 832 833 833 834 834 834 834 835 835 835 836 836 836 837 837 837 837 837
765 764 769 780 786 793 796 785 776 773 772 771 768 774 781 770 757 758 761 761 763 763 764 765 765 765 765 761 759 759 758 758 756 754 754 753 752 752 754 757 760 762 765 768 771 774 777 780 783 786 788 790 793 795 798 800 802 804 806 807 809 810 811 813 814 816 818 819 820 822 824 825 826 827 828 829 830 831 832 832 833 834 834 834 835 835 835 835 836 836 836 837 837 837 838 838 838
760 755 760 772 777 787 791 783 778 774 772 775 776 780 779 770 764 761 759 761 762 762 764 765 765 764 763 762 760 760 759 759 759 756 755 754 753 753 754 756 760 762 765 768 770 773 776 779 781 784 786 788 790 793 796 798 800 802 804 806 808 809 810 811 813 814 816 817 819 821 822 823 824 826 827 828 829 830 831 832 833 834 834 835 835 835 836 836 836 837 837 837 837 838 838 839 839
756 751 759 767 763 768 777 779 781 780 778 779 780 776 764 760 764 759 758 761 761 763 765 764 766 764 763 764 762 761 761 760 761 760 758 756 755 755 756 758 760 763 766 768 770 772 775 778 780 782 784 786 789 791 794 796 799 801 803 805 806 808 809 810 811 812 814 816 817 819 821 822 823 824 826 827 828 829 830 831 833 833 834 835 835 836 836 837 837 837 838 838 838 839 839 839 840
759 759 762 757 750 756 771 781 783 787 789 778 771 769 759 761 766 759 758 762 761 764 764 763 766 764 764 766 764 763 763 761 762 762 762 760 757 757 758 760 763 765 767 769 770 772 774 777 779 781 783 785 787 790 792 794 797 800 802 803 805 806 807 808 809 810 811 813 815 817 818 820 821 822 824 825 827 828 829 830 832 832 833 834 835 836 836 836 837 837 838 838 838 839 839 840 840
760 764 757 750 753 757 766 780 784 786 789 775 764 769 766 765 768 762 759 763 763 763 762 763 765 764 765 767 766 766 765 764 763 764 765 764 761 759 760 762 765 766 768 769 771 773 775 777 779 781 783 785 787 789 791 793 795 798 799 801 802 803 804 806 807 808 809 811 812 814 816 817 819 820 822 824 825 827 828 829 831 831 832 833 834 835 835 836 836 837 837 838 838 838 839 839 840
755 756 749 753 769 770 768 780 784 783 786 776 765 766 763 759 759 760 761 761 762 762 761 763 764 764 766 767 767 768 767 766 765 764 765 765 763 764 764 765 766 767 769 770 772 774 775 778 779 781 784 785 787 789 791 793 794 796 797 798 800 801 802 804 805 806 807 808 809 811 813 815 817 818 820 822 823 825 827 828 829 830 831 832 833 834 835 835 836 836 837 837 837 838 839 839 840
753 754 750 752 763 766 765 772 776 779 784 780 772 767 760 750 745 751 756 755 757 761 760 762 764 764 766 767 768 769 769 770 768 767 767 766 767 768 768 769 769 770 771 771 773 775 776 778 779 782 784 785 787 789 791 792 793 795 796 797 798 799 801 802 803 805 805 806 807 809 811 813 815 816 817 819 821 823 824 826 827 828 829 831 832 833 834 834 835 835 836 836 836 837 838 838 839
757 759 759 757 758 758 760 762 761 768 778 780 779 773 758 743 737 742 748 750 753 757 759 762 763 764 766 767 769 770 771 772 771 770 770 770 770 770 771 772 771 772 773 773 774 776 778 779 780 782 783 785 787 789 790 791 792 793 795 796 798 798 799 800 801 802 803 805 806 807 808 810 812 814 815 817 819 820 822 823 825 826 827 828 830 831 832 833 834 834 835 835 835 836 836 837 837
758 758 757 756 757 761 770 771 758 758 767 769 772 772 756 742 739 738 742 748 752 753 756 760 762 764 766 768 769 770 771 772 773 772 772 772 772 772 773 774 774 775 777 776 776 777 779 781 781 782 783 785 787 788 789 790 791 792 794 795 796 797 798 798 799 800 801 803 804 805 806 808 809 812 813 815 816 818 820 821 822 823 825 826 827 828 830 831 832 832 833 833 834 834 835 835 836